Location: Clifton Park
(41.4873°N, 81.8024°W)
Time: 16:36:51
(UTC+00:00)

Cosmos 2278 - Pass Details

Date: 21 January 2020
Orbit: 840 x 852 km, 71.1° (Epoch: 20 February)

Event Time Altitude Azimuth Distance (km) Brightness Sun altitude
Exits shadow 10:54:19 38° 248° (WSW) 1,285 4.2 -21.1°
Maximum altitude 10:56:06 51° 298° (WNW) 1,061 3.8 -20.8°
Drops below altitude 10° 11:01:40 10° 15° (NNE) 2,488 6.2 -19.8°
Sets 11:04:13 0° 20° (NNE) 3,427 7.0 -19.3°
